date,time,water_lv
2022-08-01,00:00:00,452.88
2022-08-01,00:10:00,452.89
2022-08-01,00:20:00,452.88
2022-08-01,00:30:00,452.87
2022-08-01,00:40:00,452.9
2022-08-01,00:50:00,452.92
2022-08-01,01:00:00,452.92
2022-08-01,01:10:00,452.93
2022-08-01,01:20:00,452.91
2022-08-01,01:30:00,452.91
2022-08-01,01:40:00,452.91
2022-08-01,01:50:00,452.92
2022-08-01,02:00:00,452.92
2022-08-01,02:10:00,452.94
2022-08-01,02:20:00,452.93
2022-08-01,02:30:00,452.95
2022-08-01,02:40:00,452.96
2022-08-01,02:50:00,452.94
2022-08-01,03:00:00,452.98
2022-08-01,03:10:00,452.98
2022-08-01,03:20:00,453
2022-08-01,03:30:00,453.02
2022-08-01,03:40:00,453.02
2022-08-01,03:50:00,453.04
2022-08-01,04:00:00,453.05
2022-08-01,04:10:00,453.08
2022-08-01,04:20:00,453.07
2022-08-01,04:30:00,453.08
2022-08-01,04:40:00,453.11
2022-08-01,04:50:00,453.12
2022-08-01,05:00:00,453.14
2022-08-01,05:10:00,453.15
2022-08-01,05:20:00,453.15
2022-08-01,05:30:00,453.17
2022-08-01,05:40:00,453.17
2022-08-01,05:50:00,453.17
2022-08-01,06:00:00,453.2
2022-08-01,06:10:00,453.19
2022-08-01,06:20:00,453.21
2022-08-01,06:30:00,453.21
2022-08-01,06:40:00,453.21
2022-08-01,06:50:00,453.23
2022-08-01,07:00:00,453.23
2022-08-01,07:10:00,453.25
2022-08-01,07:20:00,453.24
2022-08-01,07:30:00,453.24
2022-08-01,07:40:00,453.23
2022-08-01,07:50:00,453.24
2022-08-01,08:00:00,453.25
2022-08-01,08:10:00,453.25
2022-08-01,08:20:00,453.25
2022-08-01,08:30:00,453.26
2022-08-01,08:40:00,453.26
2022-08-01,08:50:00,453.25
2022-08-01,09:00:00,453.27
2022-08-01,09:10:00,453.27
2022-08-01,09:20:00,453.29
2022-08-01,09:30:00,453.29
2022-08-01,09:40:00,453.29
2022-08-01,09:50:00,453.27
2022-08-01,10:00:00,453.27
2022-08-01,10:10:00,453.29
2022-08-01,10:20:00,453.28
2022-08-01,10:30:00,453.27
2022-08-01,10:40:00,453.28
2022-08-01,10:50:00,453.28
2022-08-01,11:00:00,453.31
2022-08-01,11:10:00,453.28
2022-08-01,11:20:00,453.29
2022-08-01,11:30:00,453.29
2022-08-01,11:40:00,453.3
2022-08-01,11:50:00,453.28
2022-08-01,12:00:00,453.26
2022-08-01,12:10:00,453.28
2022-08-01,12:20:00,453.28
2022-08-01,12:30:00,453.28
2022-08-01,12:40:00,453.28
2022-08-01,12:50:00,453.27
2022-08-01,13:00:00,453.27
2022-08-01,13:10:00,453.26
2022-08-01,13:20:00,453.24
2022-08-01,13:30:00,453.25
2022-08-01,13:40:00,453.23
2022-08-01,13:50:00,453.25
2022-08-01,14:00:00,453.23
2022-08-01,14:10:00,453.23
2022-08-01,14:20:00,453.23
2022-08-01,14:30:00,453.24
2022-08-01,14:40:00,453.2
2022-08-01,14:50:00,453.2
2022-08-01,15:00:00,453.19
2022-08-01,15:10:00,453.19
2022-08-01,15:20:00,453.18
2022-08-01,15:30:00,453.18
2022-08-01,15:40:00,453.16
2022-08-01,15:50:00,453.16
2022-08-01,16:00:00,453.15
2022-08-01,16:10:00,453.14
2022-08-01,16:20:00,453.14
2022-08-01,16:30:00,453.12
2022-08-01,16:40:00,453.12
2022-08-01,16:50:00,453.12
2022-08-01,17:00:00,453.1
2022-08-01,17:10:00,453.09
2022-08-01,17:20:00,453.07
2022-08-01,17:30:00,453.08
2022-08-01,17:40:00,453.06
2022-08-01,17:50:00,453.05
2022-08-01,18:00:00,453.03
2022-08-01,18:10:00,453.03
2022-08-01,18:20:00,453.03
2022-08-01,18:30:00,453.01
2022-08-01,18:40:00,453.01
2022-08-01,18:50:00,453
2022-08-01,19:00:00,452.98
2022-08-01,19:10:00,452.99
2022-08-01,19:20:00,452.99
2022-08-01,19:30:00,452.97
2022-08-01,19:40:00,452.96
2022-08-01,19:50:00,452.95
2022-08-01,20:00:00,452.94
2022-08-01,20:10:00,452.91
2022-08-01,20:20:00,452.94
2022-08-01,20:30:00,452.91
2022-08-01,20:40:00,452.92
2022-08-01,20:50:00,452.9
2022-08-01,21:00:00,452.9
2022-08-01,21:10:00,452.9
2022-08-01,21:20:00,452.88
2022-08-01,21:30:00,452.87
2022-08-01,21:40:00,452.87
2022-08-01,21:50:00,452.86
2022-08-01,22:00:00,452.84
2022-08-01,22:10:00,452.83
2022-08-01,22:20:00,452.83
2022-08-01,22:30:00,452.81
2022-08-01,22:40:00,452.8
2022-08-01,22:50:00,452.79
2022-08-01,23:00:00,452.79
2022-08-01,23:10:00,452.77
2022-08-01,23:20:00,452.78
2022-08-01,23:30:00,452.77
2022-08-01,23:40:00,452.77
2022-08-01,23:50:00,452.76
2022-08-02,00:00:00,452.76
2022-08-02,00:10:00,452.74
2022-08-02,00:20:00,452.74
2022-08-02,00:30:00,452.73
2022-08-02,00:40:00,452.73
2022-08-02,00:50:00,452.72
2022-08-02,01:00:00,452.72
2022-08-02,01:10:00,452.71
2022-08-02,01:20:00,452.69
2022-08-02,01:30:00,452.69
2022-08-02,01:40:00,452.69
2022-08-02,01:50:00,452.69
2022-08-02,02:00:00,452.67
2022-08-02,02:10:00,452.67
2022-08-02,02:20:00,452.65
2022-08-02,02:30:00,452.64
2022-08-02,02:40:00,452.64
2022-08-02,02:50:00,452.63
2022-08-02,03:00:00,452.65
2022-08-02,03:10:00,452.63
2022-08-02,03:20:00,452.62
2022-08-02,03:30:00,452.61
2022-08-02,03:40:00,452.61
2022-08-02,03:50:00,452.6
2022-08-02,04:00:00,452.58
2022-08-02,04:10:00,452.58
2022-08-02,04:20:00,452.58
2022-08-02,04:30:00,452.58
2022-08-02,04:40:00,452.57
2022-08-02,04:50:00,452.57
2022-08-02,05:00:00,452.56
2022-08-02,05:10:00,452.56
2022-08-02,05:20:00,452.55
2022-08-02,05:30:00,452.56
2022-08-02,05:40:00,452.53
2022-08-02,05:50:00,452.53
2022-08-02,06:00:00,452.54
2022-08-02,06:10:00,452.53
2022-08-02,06:20:00,452.53
2022-08-02,06:30:00,452.53
2022-08-02,06:40:00,452.53
2022-08-02,06:50:00,452.52
2022-08-02,07:00:00,452.53
2022-08-02,07:10:00,452.53
2022-08-02,07:20:00,452.53
2022-08-02,07:30:00,452.54
2022-08-02,07:40:00,452.54
2022-08-02,07:50:00,452.54
2022-08-02,08:00:00,452.52
2022-08-02,08:10:00,452.54
2022-08-02,08:20:00,452.53
2022-08-02,08:30:00,452.53
2022-08-02,08:40:00,452.53
2022-08-02,08:50:00,452.53
2022-08-02,09:00:00,452.54
2022-08-02,09:10:00,452.54
2022-08-02,09:20:00,452.53
2022-08-02,09:30:00,452.53
2022-08-02,09:40:00,452.53
2022-08-02,09:50:00,452.53
2022-08-02,10:00:00,452.52
2022-08-02,10:10:00,452.51
2022-08-02,10:20:00,452.52
2022-08-02,10:30:00,452.51
2022-08-02,10:40:00,452.5
2022-08-02,10:50:00,452.51
2022-08-02,11:00:00,452.5
2022-08-02,11:10:00,452.5
2022-08-02,11:20:00,452.49
2022-08-02,11:30:00,452.48
2022-08-02,11:40:00,452.48
2022-08-02,11:50:00,452.48
2022-08-02,12:00:00,452.46
2022-08-02,12:10:00,452.47
2022-08-02,12:20:00,452.46
2022-08-02,12:30:00,452.44
2022-08-02,12:40:00,452.46
2022-08-02,12:50:00,452.45
2022-08-02,13:00:00,452.44
2022-08-02,13:10:00,452.43
2022-08-02,13:20:00,452.42
2022-08-02,13:30:00,452.42
2022-08-02,13:40:00,452.41
2022-08-02,13:50:00,452.4
2022-08-02,14:00:00,452.41
2022-08-02,14:10:00,452.39
2022-08-02,14:20:00,452.4
2022-08-02,14:30:00,452.4
2022-08-02,14:40:00,452.39
2022-08-02,14:50:00,452.39
2022-08-02,15:00:00,452.39
2022-08-02,15:10:00,452.37
2022-08-02,15:20:00,452.38
2022-08-02,15:30:00,452.37
2022-08-02,15:40:00,452.37
2022-08-02,15:50:00,452.37
2022-08-02,16:00:00,452.37
2022-08-02,16:10:00,452.38
2022-08-02,16:20:00,452.37
2022-08-02,16:30:00,452.37
2022-08-02,16:40:00,452.37
2022-08-02,16:50:00,452.36
2022-08-02,17:00:00,452.37
2022-08-02,17:10:00,452.36
2022-08-02,17:20:00,452.36
2022-08-02,17:30:00,452.36
2022-08-02,17:40:00,452.36
2022-08-02,17:50:00,452.36
2022-08-02,18:00:00,452.36
2022-08-02,18:10:00,452.35
2022-08-02,18:20:00,452.35
2022-08-02,18:30:00,452.35
2022-08-02,18:40:00,452.37
2022-08-02,18:50:00,452.36
2022-08-02,19:00:00,452.36
2022-08-02,19:10:00,452.37
2022-08-02,19:20:00,452.37
2022-08-02,19:30:00,452.37
2022-08-02,19:40:00,452.37
2022-08-02,19:50:00,452.36
2022-08-02,20:00:00,452.37
2022-08-02,20:10:00,452.36
2022-08-02,20:20:00,452.37
2022-08-02,20:30:00,452.37
2022-08-02,20:40:00,452.36
2022-08-02,20:50:00,452.36
2022-08-02,21:00:00,452.36
2022-08-02,21:10:00,452.35
2022-08-02,21:20:00,452.35
2022-08-02,21:30:00,452.36
2022-08-02,21:40:00,452.36
2022-08-02,21:50:00,452.35
2022-08-02,22:00:00,452.35
2022-08-02,22:10:00,452.35
2022-08-02,22:20:00,452.35
2022-08-02,22:30:00,452.35
2022-08-02,22:40:00,452.35
2022-08-02,22:50:00,452.34
2022-08-02,23:00:00,452.34
2022-08-02,23:10:00,452.34
2022-08-02,23:20:00,452.33
2022-08-02,23:30:00,452.33
2022-08-02,23:40:00,452.33
2022-08-02,23:50:00,452.33
2022-08-03,00:00:00,452.32
2022-08-03,00:10:00,452.33
2022-08-03,00:20:00,452.32
2022-08-03,00:30:00,452.33
2022-08-03,00:40:00,452.32
2022-08-03,00:50:00,452.32
2022-08-03,01:00:00,452.31
2022-08-03,01:10:00,452.31
2022-08-03,01:20:00,452.31
2022-08-03,01:30:00,452.31
2022-08-03,01:40:00,452.31
2022-08-03,01:50:00,452.31
2022-08-03,02:00:00,452.31
2022-08-03,02:10:00,452.3
2022-08-03,02:20:00,452.3
2022-08-03,02:30:00,452.29
2022-08-03,02:40:00,452.29
2022-08-03,02:50:00,452.29
2022-08-03,03:00:00,452.29
2022-08-03,03:10:00,452.29
2022-08-03,03:20:00,452.29
2022-08-03,03:30:00,452.28
2022-08-03,03:40:00,452.29
2022-08-03,03:50:00,452.28
2022-08-03,04:00:00,452.27
2022-08-03,04:10:00,452.28
2022-08-03,04:20:00,452.28
2022-08-03,04:30:00,452.28
2022-08-03,04:40:00,452.27
2022-08-03,04:50:00,452.26
2022-08-03,05:00:00,452.26
2022-08-03,05:10:00,452.26
2022-08-03,05:20:00,452.26
2022-08-03,05:30:00,452.26
2022-08-03,05:40:00,452.25
2022-08-03,05:50:00,452.24
2022-08-03,06:00:00,452.25
2022-08-03,06:10:00,452.25
2022-08-03,06:20:00,452.24
2022-08-03,06:30:00,452.24
2022-08-03,06:40:00,452.23
2022-08-03,06:50:00,452.24
2022-08-03,07:00:00,452.23
2022-08-03,07:10:00,452.23
2022-08-03,07:20:00,452.22
2022-08-03,07:30:00,452.22
2022-08-03,07:40:00,452.21
2022-08-03,07:50:00,452.22
2022-08-03,08:00:00,452.21
2022-08-03,08:10:00,452.2
2022-08-03,08:20:00,452.2
2022-08-03,08:30:00,452.2
2022-08-03,08:40:00,452.2
2022-08-03,08:50:00,452.2
2022-08-03,09:00:00,452.19
2022-08-03,09:10:00,452.2
2022-08-03,09:20:00,452.18
2022-08-03,09:30:00,452.18
2022-08-03,09:40:00,452.18
2022-08-03,09:50:00,452.17
2022-08-03,10:00:00,452.17
2022-08-03,10:10:00,452.17
2022-08-03,10:20:00,452.15
2022-08-03,10:30:00,452.15
2022-08-03,10:40:00,452.15
2022-08-03,10:50:00,452.15
2022-08-03,11:00:00,452.15
2022-08-03,11:10:00,452.15
2022-08-03,11:20:00,452.13
2022-08-03,11:30:00,452.14
2022-08-03,11:40:00,452.13
2022-08-03,11:50:00,452.13
2022-08-03,12:00:00,452.12
2022-08-03,12:10:00,452.11
2022-08-03,12:20:00,452.12
2022-08-03,12:30:00,452.12
2022-08-03,12:40:00,452.12
2022-08-03,12:50:00,452.12
2022-08-03,13:00:00,452.11
2022-08-03,13:10:00,452.11
2022-08-03,13:20:00,452.11
2022-08-03,13:30:00,452.11
2022-08-03,13:40:00,452.11
2022-08-03,13:50:00,452.11
2022-08-03,14:00:00,452.12
2022-08-03,14:10:00,452.11
2022-08-03,14:20:00,452.11
2022-08-03,14:30:00,452.11
2022-08-03,14:40:00,452.11
2022-08-03,14:50:00,452.1
2022-08-03,15:00:00,452.09
2022-08-03,15:10:00,452.1
2022-08-03,15:20:00,452.09
2022-08-03,15:30:00,452.1
2022-08-03,15:40:00,452.09
2022-08-03,15:50:00,452.09
2022-08-03,16:00:00,452.09
2022-08-03,16:10:00,452.1
2022-08-03,16:20:00,452.09
2022-08-03,16:30:00,452.09
2022-08-03,16:40:00,452.09
2022-08-03,16:50:00,452.1
2022-08-03,17:00:00,452.09
2022-08-03,17:10:00,452.09
2022-08-03,17:20:00,452.09
2022-08-03,17:30:00,452.1
2022-08-03,17:40:00,452.09
2022-08-03,17:50:00,452.09
2022-08-03,18:00:00,452.1
2022-08-03,18:10:00,452.09
2022-08-03,18:20:00,452.09
2022-08-03,18:30:00,452.09
2022-08-03,18:40:00,452.09
2022-08-03,18:50:00,452.09
2022-08-03,19:00:00,452.09
2022-08-03,19:10:00,452.08
2022-08-03,19:20:00,452.08
2022-08-03,19:30:00,452.08
2022-08-03,19:40:00,452.08
2022-08-03,19:50:00,452.08
2022-08-03,20:00:00,452.07
2022-08-03,20:10:00,452.07
2022-08-03,20:20:00,452.06
2022-08-03,20:30:00,452.05
2022-08-03,20:40:00,452.06
2022-08-03,20:50:00,452.05
2022-08-03,21:00:00,452.04
2022-08-03,21:10:00,452.04
2022-08-03,21:20:00,452.04
2022-08-03,21:30:00,452.03
2022-08-03,21:40:00,452.04
2022-08-03,21:50:00,452.03
2022-08-03,22:00:00,452.03
2022-08-03,22:10:00,452.02
2022-08-03,22:20:00,452.03
2022-08-03,22:30:00,452.03
2022-08-03,22:40:00,452.02
2022-08-03,22:50:00,452.02
2022-08-03,23:00:00,452.01
2022-08-03,23:10:00,452.02
2022-08-03,23:20:00,452
2022-08-03,23:30:00,452.01
2022-08-03,23:40:00,452
2022-08-03,23:50:00,452.01
2022-08-04,00:00:00,452
2022-08-04,00:10:00,452
2022-08-04,00:20:00,452
2022-08-04,00:30:00,451.99
2022-08-04,00:40:00,451.99
2022-08-04,00:50:00,451.99
2022-08-04,01:00:00,451.98
2022-08-04,01:10:00,451.98
2022-08-04,01:20:00,451.99
2022-08-04,01:30:00,451.99
2022-08-04,01:40:00,451.98
2022-08-04,01:50:00,451.98
2022-08-04,02:00:00,451.98
2022-08-04,02:10:00,451.98
2022-08-04,02:20:00,451.98
2022-08-04,02:30:00,451.98
2022-08-04,02:40:00,451.97
2022-08-04,02:50:00,451.96
2022-08-04,03:00:00,451.97
2022-08-04,03:10:00,451.96
2022-08-04,03:20:00,451.96
2022-08-04,03:30:00,451.96
2022-08-04,03:40:00,451.96
2022-08-04,03:50:00,451.95
2022-08-04,04:00:00,451.96
2022-08-04,04:10:00,451.96
2022-08-04,04:20:00,451.95
2022-08-04,04:30:00,451.96
2022-08-04,04:40:00,451.95
2022-08-04,04:50:00,451.94
2022-08-04,05:00:00,451.95
2022-08-04,05:10:00,451.95
2022-08-04,05:20:00,451.94
2022-08-04,05:30:00,451.95
2022-08-04,05:40:00,451.95
2022-08-04,05:50:00,451.94
2022-08-04,06:00:00,451.94
2022-08-04,06:10:00,451.93
2022-08-04,06:20:00,451.94
2022-08-04,06:30:00,451.93
2022-08-04,06:40:00,451.94
2022-08-04,06:50:00,451.93
2022-08-04,07:00:00,451.93
2022-08-04,07:10:00,451.93
2022-08-04,07:20:00,451.93
2022-08-04,07:30:00,451.92
2022-08-04,07:40:00,451.92
2022-08-04,07:50:00,451.92
2022-08-04,08:00:00,451.91
2022-08-04,08:10:00,451.91
2022-08-04,08:20:00,451.9
2022-08-04,08:30:00,451.9
2022-08-04,08:40:00,451.89
2022-08-04,08:50:00,451.9
2022-08-04,09:00:00,451.89
2022-08-04,09:10:00,451.89
2022-08-04,09:20:00,451.88
2022-08-04,09:30:00,451.88
2022-08-04,09:40:00,451.88
2022-08-04,09:50:00,451.87
2022-08-04,10:00:00,451.88
2022-08-04,10:10:00,451.86
2022-08-04,10:20:00,451.87
2022-08-04,10:30:00,451.86
2022-08-04,10:40:00,451.85
2022-08-04,10:50:00,451.85
2022-08-04,11:00:00,451.85
2022-08-04,11:10:00,451.84
2022-08-04,11:20:00,451.85
2022-08-04,11:30:00,451.84
2022-08-04,11:40:00,451.84
2022-08-04,11:50:00,451.84
2022-08-04,12:00:00,451.83
2022-08-04,12:10:00,451.83
2022-08-04,12:20:00,451.83
2022-08-04,12:30:00,451.82
2022-08-04,12:40:00,451.82
2022-08-04,12:50:00,451.82
2022-08-04,13:00:00,451.81
2022-08-04,13:10:00,451.81
2022-08-04,13:20:00,451.8
2022-08-04,13:30:00,451.8
2022-08-04,13:40:00,451.8
2022-08-04,13:50:00,451.79
2022-08-04,14:00:00,451.79
2022-08-04,14:10:00,451.79
2022-08-04,14:20:00,451.77
2022-08-04,14:30:00,451.78
2022-08-04,14:40:00,451.79
2022-08-04,14:50:00,451.78
2022-08-04,15:00:00,451.78
2022-08-04,15:10:00,451.77
2022-08-04,15:20:00,451.77
2022-08-04,15:30:00,451.77
2022-08-04,15:40:00,451.76
2022-08-04,15:50:00,451.76
2022-08-04,16:00:00,451.76
2022-08-04,16:10:00,451.76
2022-08-04,16:20:00,451.76
2022-08-04,16:30:00,451.76
2022-08-04,16:40:00,451.76
2022-08-04,16:50:00,451.75
2022-08-04,17:00:00,451.75
2022-08-04,17:10:00,451.75
2022-08-04,17:20:00,451.75
2022-08-04,17:30:00,451.75
2022-08-04,17:40:00,451.74
2022-08-04,17:50:00,451.74
2022-08-04,18:00:00,451.74
2022-08-04,18:10:00,451.74
2022-08-04,18:20:00,451.73
2022-08-04,18:30:00,451.74
2022-08-04,18:40:00,451.74
2022-08-04,18:50:00,451.74
2022-08-04,19:00:00,451.74
2022-08-04,19:10:00,451.74
2022-08-04,19:20:00,451.75
2022-08-04,19:30:00,451.74
2022-08-04,19:40:00,451.74
2022-08-04,19:50:00,451.74
2022-08-04,20:00:00,451.73
2022-08-04,20:10:00,451.75
2022-08-04,20:20:00,451.74
2022-08-04,20:30:00,451.75
2022-08-04,20:40:00,451.74
2022-08-04,20:50:00,451.75
2022-08-04,21:00:00,451.76
2022-08-04,21:10:00,451.75
2022-08-04,21:20:00,451.76
2022-08-04,21:30:00,451.76
2022-08-04,21:40:00,451.76
2022-08-04,21:50:00,451.77
2022-08-04,22:00:00,451.77
2022-08-04,22:10:00,451.77
2022-08-04,22:20:00,451.78
2022-08-04,22:30:00,451.78
2022-08-04,22:40:00,451.79
2022-08-04,22:50:00,451.8
2022-08-04,23:00:00,451.8
2022-08-04,23:10:00,451.82
2022-08-04,23:20:00,451.82
2022-08-04,23:30:00,451.82
2022-08-04,23:40:00,451.82
2022-08-04,23:50:00,451.82
2022-08-05,00:00:00,451.83
2022-08-05,00:10:00,451.83
2022-08-05,00:20:00,451.83
2022-08-05,00:30:00,451.83
2022-08-05,00:40:00,451.82
2022-08-05,00:50:00,451.82
2022-08-05,01:00:00,451.83
2022-08-05,01:10:00,451.82
2022-08-05,01:20:00,451.83
2022-08-05,01:30:00,451.81
2022-08-05,01:40:00,451.82
2022-08-05,01:50:00,451.82
2022-08-05,02:00:00,451.82
2022-08-05,02:10:00,451.81
2022-08-05,02:20:00,451.81
2022-08-05,02:30:00,451.81
2022-08-05,02:40:00,451.81
2022-08-05,02:50:00,451.81
2022-08-05,03:00:00,451.8
2022-08-05,03:10:00,451.81
2022-08-05,03:20:00,451.81
2022-08-05,03:30:00,451.8
2022-08-05,03:40:00,451.8
2022-08-05,03:50:00,451.8
2022-08-05,04:00:00,451.79
2022-08-05,04:10:00,451.8
2022-08-05,04:20:00,451.79
2022-08-05,04:30:00,451.79
2022-08-05,04:40:00,451.79
2022-08-05,04:50:00,451.78
2022-08-05,05:00:00,451.79
2022-08-05,05:10:00,451.79
2022-08-05,05:20:00,451.78
2022-08-05,05:30:00,451.78
2022-08-05,05:40:00,451.77
2022-08-05,05:50:00,451.78
2022-08-05,06:00:00,451.78
2022-08-05,06:10:00,451.77
2022-08-05,06:20:00,451.77
2022-08-05,06:30:00,451.76
2022-08-05,06:40:00,451.76
2022-08-05,06:50:00,451.77
2022-08-05,07:00:00,451.76
2022-08-05,07:10:00,451.76
2022-08-05,07:20:00,451.76
2022-08-05,07:30:00,451.76
2022-08-05,07:40:00,451.75
2022-08-05,07:50:00,451.75
2022-08-05,08:00:00,451.75
2022-08-05,08:10:00,451.74
2022-08-05,08:20:00,451.74
2022-08-05,08:30:00,451.73
2022-08-05,08:40:00,451.74
2022-08-05,08:50:00,451.73
2022-08-05,09:00:00,451.73
2022-08-05,09:10:00,451.73
2022-08-05,09:20:00,451.73
2022-08-05,09:30:00,451.72
2022-08-05,09:40:00,451.72
2022-08-05,09:50:00,451.73
2022-08-05,10:00:00,451.72
2022-08-05,10:10:00,451.72
2022-08-05,10:20:00,451.71
2022-08-05,10:30:00,451.7
2022-08-05,10:40:00,451.7
2022-08-05,10:50:00,451.7
2022-08-05,11:00:00,451.69
2022-08-05,11:10:00,451.69
2022-08-05,11:20:00,451.68
2022-08-05,11:30:00,451.69
2022-08-05,11:40:00,451.69
2022-08-05,11:50:00,451.69
2022-08-05,12:00:00,451.69
2022-08-05,12:10:00,451.69
2022-08-05,12:20:00,451.69
2022-08-05,12:30:00,451.69
2022-08-05,12:40:00,451.69
2022-08-05,12:50:00,451.67
2022-08-05,13:00:00,451.69
2022-08-05,13:10:00,451.68
2022-08-05,13:20:00,451.69
2022-08-05,13:30:00,451.68
2022-08-05,13:40:00,451.68
2022-08-05,13:50:00,451.68
2022-08-05,14:00:00,451.67
2022-08-05,14:10:00,451.67
2022-08-05,14:20:00,451.68
2022-08-05,14:30:00,451.67
2022-08-05,14:40:00,451.67
2022-08-05,14:50:00,451.66
2022-08-05,15:00:00,451.67
2022-08-05,15:10:00,451.67
2022-08-05,15:20:00,451.66
2022-08-05,15:30:00,451.66
2022-08-05,15:40:00,451.66
2022-08-05,15:50:00,451.66
2022-08-05,16:00:00,451.66
2022-08-05,16:10:00,451.66
2022-08-05,16:20:00,451.65
2022-08-05,16:30:00,451.65
2022-08-05,16:40:00,451.64
2022-08-05,16:50:00,451.65
2022-08-05,17:00:00,451.64
2022-08-05,17:10:00,451.63
2022-08-05,17:20:00,451.64
2022-08-05,17:30:00,451.63
2022-08-05,17:40:00,451.62
2022-08-05,17:50:00,451.62
2022-08-05,18:00:00,451.62
2022-08-05,18:10:00,451.61
2022-08-05,18:20:00,451.61
2022-08-05,18:30:00,451.61
2022-08-05,18:40:00,451.6
2022-08-05,18:50:00,451.6
2022-08-05,19:00:00,451.61
2022-08-05,19:10:00,451.6
2022-08-05,19:20:00,451.6
2022-08-05,19:30:00,451.6
2022-08-05,19:40:00,451.59
2022-08-05,19:50:00,451.6
2022-08-05,20:00:00,451.61
2022-08-05,20:10:00,451.62
2022-08-05,20:20:00,451.62
2022-08-05,20:30:00,451.62
2022-08-05,20:40:00,451.62
2022-08-05,20:50:00,451.62
2022-08-05,21:00:00,451.65
2022-08-05,21:10:00,451.64
2022-08-05,21:20:00,451.65
2022-08-05,21:30:00,451.65
2022-08-05,21:40:00,451.66
2022-08-05,21:50:00,451.65
2022-08-05,22:00:00,451.67
2022-08-05,22:10:00,451.68
2022-08-05,22:20:00,451.69
2022-08-05,22:30:00,451.7
2022-08-05,22:40:00,451.71
2022-08-05,22:50:00,451.72
2022-08-05,23:00:00,451.74
2022-08-05,23:10:00,451.76
2022-08-05,23:20:00,451.78
2022-08-05,23:30:00,451.81
2022-08-05,23:40:00,451.84
2022-08-05,23:50:00,451.87
2022-08-06,00:00:00,451.91
2022-08-06,00:10:00,451.94
2022-08-06,00:20:00,451.98
2022-08-06,00:30:00,452
2022-08-06,00:40:00,452.01
2022-08-06,00:50:00,452.04
2022-08-06,01:00:00,452.05
2022-08-06,01:10:00,452.07
2022-08-06,01:20:00,452.09
2022-08-06,01:30:00,452.09
2022-08-06,01:40:00,452.1
2022-08-06,01:50:00,452.1
2022-08-06,02:00:00,452.11
2022-08-06,02:10:00,452.13
2022-08-06,02:20:00,452.14
2022-08-06,02:30:00,452.16
2022-08-06,02:40:00,452.17
2022-08-06,02:50:00,452.19
2022-08-06,03:00:00,452.22
2022-08-06,03:10:00,452.24
2022-08-06,03:20:00,452.25
2022-08-06,03:30:00,452.29
2022-08-06,03:40:00,452.3
2022-08-06,03:50:00,452.34
2022-08-06,04:00:00,452.35
2022-08-06,04:10:00,452.37
2022-08-06,04:20:00,452.4
2022-08-06,04:30:00,452.41
2022-08-06,04:40:00,452.45
2022-08-06,04:50:00,452.46
2022-08-06,05:00:00,452.48
2022-08-06,05:10:00,452.49
2022-08-06,05:20:00,452.51
2022-08-06,05:30:00,452.53
2022-08-06,05:40:00,452.53
2022-08-06,05:50:00,452.56
2022-08-06,06:00:00,452.57
2022-08-06,06:10:00,452.58
2022-08-06,06:20:00,452.59
2022-08-06,06:30:00,452.61
2022-08-06,06:40:00,452.61
2022-08-06,06:50:00,452.62
2022-08-06,07:00:00,452.63
2022-08-06,07:10:00,452.63
2022-08-06,07:20:00,452.64
2022-08-06,07:30:00,452.65
2022-08-06,07:40:00,452.67
2022-08-06,07:50:00,452.67
2022-08-06,08:00:00,452.69
2022-08-06,08:10:00,452.7
2022-08-06,08:20:00,452.71
2022-08-06,08:30:00,452.7
2022-08-06,08:40:00,452.72
2022-08-06,08:50:00,452.73
2022-08-06,09:00:00,452.75
2022-08-06,09:10:00,452.76
2022-08-06,09:20:00,452.76
2022-08-06,09:30:00,452.77
2022-08-06,09:40:00,452.78
2022-08-06,09:50:00,452.8
2022-08-06,10:00:00,452.81
2022-08-06,10:10:00,452.83
2022-08-06,10:20:00,452.84
2022-08-06,10:30:00,452.85
2022-08-06,10:40:00,452.85
2022-08-06,10:50:00,452.87
2022-08-06,11:00:00,452.89
2022-08-06,11:10:00,452.89
2022-08-06,11:20:00,452.9
2022-08-06,11:30:00,452.91
2022-08-06,11:40:00,452.93
2022-08-06,11:50:00,452.92
2022-08-06,12:00:00,452.93
2022-08-06,12:10:00,452.94
2022-08-06,12:20:00,452.97
2022-08-06,12:30:00,452.94
2022-08-06,12:40:00,452.95
2022-08-06,12:50:00,452.95
2022-08-06,13:00:00,452.96
2022-08-06,13:10:00,452.98
2022-08-06,13:20:00,452.98
2022-08-06,13:30:00,452.98
2022-08-06,13:40:00,452.97
2022-08-06,13:50:00,452.98
2022-08-06,14:00:00,452.97
2022-08-06,14:10:00,452.97
2022-08-06,14:20:00,452.97
2022-08-06,14:30:00,452.95
2022-08-06,14:40:00,452.96
2022-08-06,14:50:00,452.96
2022-08-06,15:00:00,452.95
2022-08-06,15:10:00,452.94
2022-08-06,15:20:00,452.94
2022-08-06,15:30:00,452.93
2022-08-06,15:40:00,452.93
2022-08-06,15:50:00,452.92
2022-08-06,16:00:00,452.9
2022-08-06,16:10:00,452.89
2022-08-06,16:20:00,452.88
2022-08-06,16:30:00,452.88
2022-08-06,16:40:00,452.87
2022-08-06,16:50:00,452.86
2022-08-06,17:00:00,452.85
2022-08-06,17:10:00,452.84
2022-08-06,17:20:00,452.83
2022-08-06,17:30:00,452.82
2022-08-06,17:40:00,452.81
2022-08-06,17:50:00,452.8
2022-08-06,18:00:00,452.79
2022-08-06,18:10:00,452.78
2022-08-06,18:20:00,452.78
2022-08-06,18:30:00,452.77
2022-08-06,18:40:00,452.76
2022-08-06,18:50:00,452.76
2022-08-06,19:00:00,452.72
2022-08-06,19:10:00,452.74
2022-08-06,19:20:00,452.74
2022-08-06,19:30:00,452.73
2022-08-06,19:40:00,452.73
2022-08-06,19:50:00,452.73
2022-08-06,20:00:00,452.73
2022-08-06,20:10:00,452.73
2022-08-06,20:20:00,452.72
2022-08-06,20:30:00,452.7
2022-08-06,20:40:00,452.7
2022-08-06,20:50:00,452.69
2022-08-06,21:00:00,452.7
2022-08-06,21:10:00,452.69
2022-08-06,21:20:00,452.68
2022-08-06,21:30:00,452.67
2022-08-06,21:40:00,452.65
2022-08-06,21:50:00,452.67
2022-08-06,22:00:00,452.65
2022-08-06,22:10:00,452.66
2022-08-06,22:20:00,452.65
2022-08-06,22:30:00,452.65
2022-08-06,22:40:00,452.63
2022-08-06,22:50:00,452.64
2022-08-06,23:00:00,452.63
2022-08-06,23:10:00,452.63
2022-08-06,23:20:00,452.63
2022-08-06,23:30:00,452.63
2022-08-06,23:40:00,452.63
2022-08-06,23:50:00,452.61
2022-08-07,00:00:00,452.62
2022-08-07,00:10:00,452.61
2022-08-07,00:20:00,452.62
2022-08-07,00:30:00,452.62
2022-08-07,00:40:00,452.63
2022-08-07,00:50:00,452.62
2022-08-07,01:00:00,452.63
2022-08-07,01:10:00,452.63
2022-08-07,01:20:00,452.63
2022-08-07,01:30:00,452.61
2022-08-07,01:40:00,452.62
2022-08-07,01:50:00,452.63
2022-08-07,02:00:00,452.62
2022-08-07,02:10:00,452.62
2022-08-07,02:20:00,452.62
2022-08-07,02:30:00,452.62
2022-08-07,02:40:00,452.64
2022-08-07,02:50:00,452.63
2022-08-07,03:00:00,452.63
2022-08-07,03:10:00,452.63
2022-08-07,03:20:00,452.64
2022-08-07,03:30:00,452.62
2022-08-07,03:40:00,452.63
2022-08-07,03:50:00,452.63
2022-08-07,04:00:00,452.64
2022-08-07,04:10:00,452.64
2022-08-07,04:20:00,452.64